Regional Weather Roundup
Issued by NWS Mobile, AL

Home | Current Version | Previous Version | Text Only | Print | Product List | Glossary On
Versions: 1 2 3 4 5 6 7 8 9 10 11 12 13 14 15 16 17 18 19 20 21 22 23 24 25 26 27 28
000
ASUS44 KMOB 302112
RWRMOB
REGIONAL WEATHER ROUNDUP
NATIONAL WEATHER SERVICE MOBILE AL
400 PM CDT FRI SEP 30 2016

NOTE: "FAIR" INDICATES FEW OR NO CLOUDS BELOW 12,000 FEET WITH NO
      SIGNIFICANT WEATHER AND/OR OBSTRUCTIONS TO VISIBILITY.

  * THESE STATIONS ARE PART OF THE UNIVERSITY OF SOUTH ALABAMA
    MESONET AND ARE NOT UNDER NWS OR FAA QUALITY CONTROL.

ALZ061>064-302200-
COASTAL ALABAMA

CITY           SKY/WX    TMP DP  RH WIND       PRES   REMARKS
MOBILE REG APT MOSUNNY   80  54  40 N8        30.03F
BROOKLEY FIELD SUNNY     81  53  37 NW6       30.03F
USA CAMPUS*    NOT AVBL
DOG RIVER*     NOT AVBL


CITY           SKY/WX    TMP DP  RH WIND       PRES   REMARKS
MOUNT VERNON*  NOT AVBL
SARALAND*      NOT AVBL
BAY MINETTE*   NOT AVBL
LOXLEY*        NOT AVBL
ROBERTSDALE*   NOT AVBL
FAIRHOPE*      NOT AVBL
ELBERTA*       NOT AVBL
FOLEY*         NOT AVBL
GRAND BAY*     NOT AVBL
DAUPHIN ISLND* NOT AVBL
BON SCOUR NWR* NOT AVBL
GULF SHORES    SUNNY     79  56  44 N10       30.02S

$$

ALZ051>060-302200-
INTERIOR SOUTHWEST AND SOUTH CENTRAL ALABAMA

CITY           SKY/WX    TMP DP  RH WIND       PRES   REMARKS
GREENVILLE     MOSUNNY   78  49  35 NW9       30.03S
EVERGREEN      SUNNY     78  53  41 NW6       30.03F
CASTLEBERRY*   NOT AVBL
ATMORE*        NOT AVBL
DIXIE*         NOT AVBL
ANDALUSIA/OPP  SUNNY     82  52  35 NW12      30.02F
ANDALUSIA*     NOT AVBL
FLORALA APT    SUNNY     77  51  40 VRB5      30.04S
FLORALA*       NOT AVBL

$$

FLZ001>006-302200-
WESTERN FLORIDA PANHANDLE

CITY           SKY/WX    TMP DP  RH WIND       PRES   REMARKS
PENSACOLA      SUNNY     81  53  37 NW9       30.01F
NAS PENSACOLA  MOSUNNY   81  53  37 N7        30.01F
MILTON         MOSUNNY   79  55  43 NW8       30.02F
WHTNG S FIELD  MOSUNNY   82  55  39 N8        30.01F


CITY           SKY/WX    TMP DP  RH WIND       PRES   REMARKS
WALNUT HILL*   NOT AVBL
JAY*           NOT AVBL
DUKE FIELD     MOSUNNY   80  50  34 VRB2      30.01F
CRESTVIEW      SUNNY     80  51  36 VRB7      30.03F
VALPARAISO     SUNNY     83  49  30 W8        30.00F
DESTIN         SUNNY     82  57  42 VRB5      30.00F

$$

MSZ076-079-302200-
INTERIOR SOUTHEAST MISSISSIPPI

CITY           SKY/WX    TMP DP  RH WIND       PRES   REMARKS
LEAKESVILLE*   NOT AVBL
AGRICOLA*      NOT AVBL

$$

MARINE OBSERVATIONS

STATION/POSITION TIME  TEMP    WIND        PRES    WAVE
                       AIR SEA DIR/SP/G            HT/PER
                 (UTC) (F)     (DEG/KT/KT) (MB)    (FT/S)
PASCAGOULA       2000   78     230/  4/  8 1017.0F
PETIT BOIS ISLND 2000   76     290/  9/ 11 1017.9F
GRAND BAY        1900   75     170/  5     1019.0
KATRINA CUT      2000   75     280/  8     1016.9F
CEDAR POINT      2000   76     110/  5     1017.3F
E DAUPHIN ISLAND 2000   75      50/  2/  3 1017.2F
MIDDLE BAY LIGHT 2000   77      60/  3     1016.9F
USCG MOBILE BAY  2000   78 83  310/  7/ 10 1017.6F
STATE DOCKS      2000   84 85              1017.0F
MEAHER PARK      2000   77     300/  5     1016.9F
WEEKS BAY        1900   78                   N/A
FORT MORGAN      2000   75      30/  4/  6 1016.7F
12 S ORANGE BCH  2050   76 84  290/  6/  8 1016.9F   1/ 4
PENSACOLA BAY    2000   80 81   10/  3/  9 1016.8F
64 S DAUPHIN ISL 2000   76 84  360/  8/ 12 1016.8F
67 S FORT MORGAN 2030   78      20/  8     1016.6F

$$

SELECTED LOCATIONS ACROSS THE REGION

CITY           SKY/WX    TMP DP  RH WIND       PRES   REMARKS
NEW ORLEANS    MOSUNNY   81  56  42 N7        30.04F
GULFPORT       SUNNY     81  54  39 NW9       30.02F
PASCAGOULA AP  SUNNY     80  57  45 N7        30.02F
PASCAGOULA*    NOT AVBL
HATTIESBURG    MOSUNNY   81  56  42 VRB6      30.05F
LAUREL         MOSUNNY   79  52  38 NW6       30.07S
MERIDIAN       CLOUDY    81  52  36 N9        30.03F
JACKSON        PTSUNNY   80  53  39 NW9       30.04F
MONTGOMERY     SUNNY     78  47  33 W9        30.03F
TROY           SUNNY     77  52  41 NW7       30.03F
KINSTON*       NOT AVBL
GENEVA*        NOT AVBL
ASHFORD*       NOT AVBL
DOTHAN         SUNNY     80  51  36 W12       30.04S
PANAMA CITY    SUNNY     82  53  36 NW6       29.99F

$$





USA.gov is the U.S. government's official web portal to all federal, state and local government web resources and services.